| time (UTC) | temp F | wind direction | speed MPH | gust MPH | rain 1hr in | rain 24hr in | rain mn in | humidity % | barometer mb |
| 20260505171551 | 54 | 337 | 6.0 | 13.0 | 0.00 | 0.00 | 0.00 | 74 | 1011.4 |
| 20260505170043 | 54 | 5 | 6.0 | 15.0 | 0.00 | 0.00 | 0.00 | 74 | 1011.5 |
| 20260505164543 | 55 | 355 | 7.0 | 13.0 | 0.00 | 0.00 | 0.00 | 73 | 1011.4 |
| 20260505163042 | 55 | 355 | 8.0 | 14.0 | 0.00 | 0.00 | 0.00 | 74 | 1011.4 |
| 20260505161548 | 56 | 346 | 7.0 | 16.0 | 0.00 | 0.00 | 0.00 | 73 | 1011.3 |
| 20260505153038 | 56 | 333 | 5.0 | 13.0 | 0.00 | 0.00 | 0.00 | 72 | 1011.6 |
| 20260505151537 | 56 | 350 | 6.0 | 12.0 | 0.00 | 0.00 | 0.00 | 70 | 1011.5 |
| 20260505124527 | 56 | 5 | 8.0 | 15.0 | 0.00 | 0.00 | 0.00 | 73 | 1011.9 |
| 20260505123027 | 55 | 5 | 7.0 | 15.0 | 0.00 | 0.00 | 0.00 | 73 | 1011.9 |
| 20260505121531 | 55 | 5 | 9.0 | 15.0 | 0.00 | 0.00 | 0.00 | 72 | 1012.1 |
| 20260505120052 | 55 | 341 | 6.0 | 14.0 | 0.00 | 0.00 | 0.00 | 72 | 1011.9 |
| 20260505114524 | 55 | 293 | 6.0 | 13.0 | 0.00 | 0.00 | 0.00 | 70 | 1012.1 |
| 20260505113027 | 55 | 5 | 7.0 | 13.0 | 0.00 | 0.00 | 0.00 | 67 | 1012.1 |
| 20260505111524 | 55 | 348 | 8.0 | 15.0 | 0.00 | 0.00 | 0.00 | 68 | 1012.1 |
| 20260505101522 | 55 | 340 | 6.0 | 13.0 | 0.00 | 0.00 | 0.00 | 71 | 1012.6 |
| 20260505100021 | 55 | 17 | 6.0 | 12.0 | 0.00 | 0.00 | 0.00 | 71 | 1012.7 |
| 20260505094509 | 55 | 28 | 6.0 | 11.0 | 0.00 | 0.00 | 0.00 | 71 | 1012.5 |
| 20260505093006 | 54 | 343 | 5.0 | 12.0 | 0.00 | 0.00 | 0.00 | 71 | 1012.5 |
| 20260505091511 | 53 | 313 | 4.0 | 11.0 | 0.00 | 0.00 | 0.00 | 76 | 1012.4 |
| 20260505090100 | 53 | 348 | 5.0 | 13.0 | 0.00 | 0.00 | 0.00 | 74 | 1012.5 |
| 20260505084557 | 53 | 338 | 7.0 | 12.0 | 0.00 | 0.00 | 0.00 | 74 | 1012.6 |
| 20260505083054 | 53 | 5 | 3.0 | 12.0 | 0.00 | 0.00 | 0.00 | 77 | 1012.5 |
| 20260505081548 | 51 | 325 | 6.0 | 11.0 | 0.00 | 0.00 | 0.00 | 77 | 1012.7 |
| 20260505080046 | 50 | 343 | 4.0 | 11.0 | 0.00 | 0.00 | 0.00 | 80 | 1013.2 |
| 20260505074544 | 50 | 9 | 4.0 | 11.0 | 0.00 | 0.00 | 0.00 | 83 | 1013.1 |
| 20260505073059 | 50 | 340 | 4.0 | 8.0 | 0.00 | 0.00 | 0.00 | 85 | 1013.1 |
| 20260505071541 | 49 | 355 | 2.0 | 5.0 | 0.00 | 0.00 | 0.00 | 89 | 1013.0 |
| 20260505070040 | 49 | 355 | 2.0 | 6.0 | 0.00 | 0.00 | 0.00 | 90 | 1013.0 |
| 20260505064543 | 48 | 322 | 1.0 | 4.0 | 0.00 | 0.00 | 0.00 | 92 | 1013.2 |
| 20260505063038 | 48 | 355 | 1.0 | 3.0 | 0.00 | 0.00 | 0.00 | 93 | 1013.3 |
| 20260505061547 | 48 | 11 | 0.0 | 1.0 | 0.00 | 0.00 | 0.00 | 93 | 1013.3 |
| 20260505060034 | 48 | 11 | 0.0 | 2.0 | 0.00 | 0.00 | 0.00 | 93 | 1013.2 |
| 20260505054556 | 48 | 13 | 0.0 | 2.0 | 0.00 | 0.00 | 0.00 | 94 | 1013.1 |
| 20260505053034 | 48 | 13 | 0.0 | 0.0 | 0.00 | 0.00 | 0.00 | 94 | 1013.1 |
| 20260505051533 | 47 | 13 | 0.0 | 0.0 | 0.00 | 0.00 | 0.00 | 94 | 1013.1 |
| 20260505041527 | 47 | 334 | 0.0 | 4.0 | 0.00 | 0.00 | 0.00 | 94 | 1012.6 |
| 20260505040028 | 47 | 332 | 1.0 | 4.0 | 0.00 | 0.00 | 0.00 | 95 | 1012.6 |
| 20260505034526 | 47 | 26 | 0.0 | 2.0 | 0.00 | 0.00 | 0.00 | 95 | 1012.6 |
| 20260505033026 | 47 | 29 | 0.0 | 4.0 | 0.00 | 0.00 | 0.00 | 95 | 1012.6 |
| 20260505031539 | 47 | 21 | 1.0 | 2.0 | 0.00 | 0.00 | 0.00 | 95 | 1012.8 |
| 20260505030023 | 47 | 22 | 0.0 | 2.0 | 0.00 | 0.00 | 0.00 | 95 | 1012.8 |
| 20260505024532 | 47 | 22 | 0.0 | 2.0 | 0.00 | 0.00 | 0.00 | 95 | 1012.8 |
| 20260505023022 | 47 | 11 | 0.0 | 2.0 | 0.00 | 0.00 | 0.00 | 95 | 1012.9 |
| 20260505021525 | 47 | 335 | 0.0 | 2.0 | 0.00 | 0.00 | 0.00 | 94 | 1013.0 |
| 20260505020027 | 47 | 336 | 1.0 | 4.0 | 0.00 | 0.00 | 0.00 | 94 | 1013.1 |
| 20260505014525 | 48 | 360 | 1.0 | 2.0 | 0.00 | 0.00 | 0.00 | 94 | 1013.1 |
| 20260505013014 | 48 | 360 | 0.0 | 2.0 | 0.00 | 0.00 | 0.00 | 95 | 1013.2 |
| 20260505011523 | 48 | 360 | 0.0 | 0.0 | 0.00 | 0.00 | 0.00 | 95 | 1013.4 |
| 20260505010012 | 47 | 360 | 0.0 | 2.0 | 0.00 | 0.00 | 0.00 | 94 | 1013.3 |
| 20260505004526 | 48 | 360 | 0.0 | 2.0 | 0.00 | 0.00 | 0.00 | 93 | 1013.4 |
| 20260505003008 | 48 | 51 | 0.0 | 0.0 | 0.00 | 0.00 | 0.00 | 93 | 1013.4 |
| 20260505001507 | 49 | 51 | 0.0 | 0.0 | 0.00 | 0.00 | 0.00 | 93 | 1013.7 |
| 20260505000008 | 49 | 51 | 0.0 | 0.0 | 0.00 | 0.00 | 0.00 | 92 | 1013.7 |
| 20260504234504 | 49 | 51 | 0.0 | 0.0 | 0.00 | 0.00 | 0.00 | 92 | 1013.7 |
| 20260504233001 | 50 | 51 | 0.0 | 0.0 | 0.00 | 0.00 | 0.00 | 91 | 1013.5 |
| 20260504231602 | 50 | 51 | 0.0 | 0.0 | 0.00 | 0.00 | 0.00 | 90 | 1013.5 |
| 20260504230107 | 50 | 62 | 1.0 | 3.0 | 0.00 | 0.00 | 0.00 | 90 | 1013.4 |
| 20260504224558 | 51 | 62 | 0.0 | 1.0 | 0.00 | 0.00 | 0.00 | 89 | 1013.5 |
| 20260504223104 | 51 | 62 | 0.0 | 0.0 | 0.00 | 0.00 | 0.00 | 89 | 1013.7 |
| 20260504221604 | 52 | 62 | 0.0 | 2.0 | 0.00 | 0.00 | 0.00 | 88 | 1013.5 |
| 20260504220059 | 52 | 63 | 0.0 | 1.0 | 0.00 | 0.00 | 0.00 | 87 | 1013.6 |
| 20260504214557 | 53 | 63 | 1.0 | 3.0 | 0.00 | 0.00 | 0.00 | 87 | 1013.6 |
| 20260504213054 | 53 | 62 | 2.0 | 4.0 | 0.00 | 0.00 | 0.00 | 87 | 1013.7 |
| 20260504211552 | 53 | 52 | 1.0 | 5.0 | 0.00 | 0.00 | 0.00 | 87 | 1013.7 |
| 20260504210054 | 54 | 74 | 1.0 | 3.0 | 0.00 | 0.00 | 0.00 | 87 | 1013.6 |
| 20260504204550 | 54 | 59 | 0.0 | 1.0 | 0.00 | 0.02 | 0.00 | 87 | 1013.5 |
| 20260504203101 | 54 | 59 | 0.0 | 2.0 | 0.00 | 0.02 | 0.00 | 87 | 1013.4 |
| 20260504201550 | 55 | 59 | 2.0 | 5.0 | 0.00 | 0.02 | 0.00 | 86 | 1013.4 |
| 20260504200048 | 55 | 61 | 3.0 | 5.0 | 0.00 | 0.02 | 0.00 | 85 | 1013.2 |
| 20260504194548 | 55 | 54 | 1.0 | 4.0 | 0.00 | 0.31 | 0.00 | 85 | 1013.1 |
| 20260504193047 | 56 | 57 | 1.0 | 4.0 | 0.00 | 0.31 | 0.00 | 84 | 1012.6 |
| 20260504191546 | 56 | 59 | 2.0 | 5.0 | 0.00 | 0.31 | 0.00 | 84 | 1012.5 |
| 20260504190046 | 56 | 71 | 0.0 | 1.0 | 0.00 | 0.31 | 0.00 | 84 | 1012.5 |
| 20260504184545 | 56 | 71 | 0.0 | 2.0 | 0.00 | 0.31 | 0.00 | 83 | 1012.4 |
| 20260504183045 | 57 | 76 | 0.0 | 4.0 | 0.00 | 0.31 | 0.00 | 81 | 1012.5 |
| 20260504181548 | 58 | 87 | 2.0 | 6.0 | 0.00 | 0.31 | 0.00 | 81 | 1012.2 |
| 20260504180044 | 58 | 88 | 1.0 | 3.0 | 0.00 | 0.31 | 0.00 | 81 | 1012.2 |
| 20260504174544 | 59 | 88 | 2.0 | 6.0 | 0.00 | 0.31 | 0.00 | 79 | 1012.2 |
| 20260504173044 | 60 | 68 | 4.0 | 9.0 | 0.00 | 0.31 | 0.00 | 76 | 1012.1 |